Route Details

Aircraft Information
Group: European Fleet
Types: A30F, A31F, B738
Route Data
Distance: 1000nm
Duration: 3h 04m
Origin METAR: LPPT 010600Z VRB02KT 9999 FEW005 06/05 Q1027
Dest. METAR: EDDK 010550Z AUTO 27014KT 9999 SCT024 06/02 Q1020 NOSIG
Freight Data
(for Feb 1, 2023)
Load Factor:
52%
Manifested Cargo: 46,521lbs
Financial History
Total Freight: 87,231lbs
Average Load: 0lbs/flt
Fuel Used: 53,747lbs
Avg. Fuel Used: 0lbs/flt
Fuel Expense: $17,982
Avg. Fuel Expense: $0
Avg. Fuel Cost: $0/lbs
Total Gross Income: $178,038
Pilot Pay: $518
Total Expenses: $26,599
Total Revenue: $131,997
Average Revenue: $0

Capitol Logistics 536




LPPT
Aeroporto da Portela de Sacavem
Lisbon, PT
EDDK
Cologne Bonn Airport
Cologne, DE